EW5961 Weather Reports


Display with metric or nautical units.
time (UTC)temp
F
wind
direction
speed
MPH
gust
MPH
rain 1hr
in
rain 24hr
in
rain mn
in
humidity
%
barometer
mb
20210306013119 81 24 0.0 0.0 0.00 0.00 0.00 75 1011.1
20210306011538 81 46 0.0 0.0 0.00 0.00 0.00 74 1010.8
20210306010043 82 26 0.0 0.0 0.00 0.00 0.00 73 1010.7
20210306004540 82 42 0.0 0.0 0.00 0.00 0.00 72 1010.5
20210306003320 83 15 0.0 0.0 0.00 0.00 0.00 72 1010.3
20210306001541 83 12 0.0 0.0 0.00 0.00 0.00 70 1010.1
20210306000119 84 5 0.0 0.0 0.00 0.00 0.00 68 1009.8
20210305234540 85 16 0.0 0.0 0.00 0.00 0.00 67 1009.7
20210305233121 86 5 0.0 0.0 0.00 0.00 0.00 66 1009.5
20210305231857 86 13 0.0 0.0 0.00 0.00 0.00 65 1009.4
20210305230206 88 33 0.0 0.0 0.00 0.00 0.00 62 1009.1
20210305224626 89 20 0.0 0.0 0.00 0.00 0.00 58 1009.2
20210305223123 91 79 0.0 0.0 0.00 0.00 0.00 48 1009.1
20210305221653 91 157 0.0 0.0 0.00 0.00 0.00 49 1009.0
20210305220054 91 141 0.0 0.0 0.00 0.00 0.00 49 1009.0
20210305214625 91 110 0.0 0.0 0.00 0.00 0.00 48 1009.0
20210305213118 91 150 0.0 0.0 0.00 0.00 0.00 47 1009.1
20210305211543 92 157 0.0 0.0 0.00 0.00 0.00 46 1009.2
20210305210043 92 198 0.0 0.0 0.00 0.00 0.00 47 1009.2
20210305203058 92 138 0.0 0.0 0.00 0.00 0.00 47 1009.6
20210305201537 92 153 0.0 0.0 0.00 0.00 0.00 48 1009.8
20210305200438 92 185 0.0 0.0 0.00 0.00 0.00 46 1009.9
20210305194638 93 171 0.0 0.0 0.00 0.00 0.00 46 1010.2
20210305193209 93 114 0.0 0.0 0.00 0.00 0.00 49 1010.5
20210305191656 90 96 0.0 0.0 0.00 0.00 0.00 52 1010.7
20210305190124 89 90 0.0 0.0 0.00 0.00 0.00 52 1011.0
20210305184609 90 177 0.0 0.0 0.00 0.04 0.00 52 1011.2
20210305183115 90 153 0.0 0.0 0.00 0.04 0.00 52 1011.5
20210305181543 90 133 0.0 0.0 0.00 0.04 0.00 52 1011.8
20210305180153 89 140 0.0 0.0 0.00 0.04 0.00 54 1012.1
20210305174639 87 142 0.0 0.0 0.00 0.04 0.00 58 1012.5
20210305173100 86 111 0.0 0.0 0.00 0.04 0.00 58 1012.9
20210305171547 86 137 0.0 0.0 0.00 0.04 0.00 61 1013.3
20210305170136 85 73 0.0 0.0 0.00 0.04 0.00 61 1013.5
20210305164518 85 96 0.0 0.0 0.00 0.04 0.00 61 1013.8
20210305161650 84 124 0.0 0.0 0.00 0.04 0.00 65 1014.3
20210305160301 82 98 0.0 0.0 0.00 0.04 0.00 67 1014.4
20210305154703 81 112 0.0 0.0 0.00 0.04 0.00 68 1014.5
20210305153202 80 115 0.0 0.0 0.00 0.04 0.00 69 1014.5
20210305151554 80 144 0.0 0.0 0.00 0.04 0.00 71 1014.5
20210305150138 79 93 0.0 0.0 0.00 0.04 0.00 73 1014.6
20210305144645 78 123 0.0 0.0 0.00 0.04 0.00 75 1014.7
20210305141602 75 103 0.0 0.0 0.00 0.04 0.00 80 1014.4
20210305140300 74 94 0.0 0.0 0.00 0.04 0.00 84 1014.2
20210305134608 72 94 0.0 0.0 0.00 0.04 0.00 89 1014.2
20210305133022 71 75 0.0 0.0 0.00 0.04 0.00 91 1014.1
20210305131534 70 98 0.0 0.0 0.00 0.04 0.00 92 1014.1
20210305130237 68 116 0.0 0.0 0.00 0.04 0.00 92 1014.0
20210305124520 68 144 0.0 0.0 0.00 0.04 0.00 92 1014.0
20210305123406 68 141 0.0 0.0 0.00 0.04 0.00 92 1013.9
20210305121527 68 144 0.0 0.0 0.00 0.04 0.00 92 1013.7
20210305120026 68 96 0.0 0.0 0.00 0.04 0.00 92 1013.7
20210305114528 68 96 0.0 0.0 0.00 0.04 0.00 92 1013.5
20210305113120 68 97 0.0 0.0 0.00 0.04 0.00 92 1013.4
20210305111518 68 100 0.0 0.0 0.00 0.04 0.00 92 1013.3
20210305110052 68 105 0.0 0.0 0.00 0.04 0.00 92 1013.1
20210305104521 68 98 0.0 0.0 0.00 0.04 0.00 91 1013.1
20210305103024 68 88 0.0 0.0 0.00 0.04 0.00 91 1013.2
20210305101700 69 102 0.0 0.0 0.00 0.04 0.00 91 1013.2
20210305100314 69 107 0.0 0.0 0.00 0.04 0.00 90 1013.3
20210305094645 69 82 0.0 0.0 0.00 0.04 0.00 90 1013.4
20210305093203 69 81 0.0 0.0 0.00 0.04 0.00 90 1013.5
20210305091734 69 107 0.0 0.0 0.00 0.04 0.00 89 1013.4
20210305090203 69 107 0.0 0.0 0.00 0.04 0.00 89 1013.6
20210305084915 70 112 0.0 0.0 0.00 0.04 0.00 88 1013.7
20210305083141 70 111 0.0 0.0 0.00 0.04 0.00 88 1013.9
20210305080133 70 86 0.0 0.0 0.00 0.04 0.00 87 1014.0
20210305074650 71 82 0.0 0.0 0.00 0.04 0.00 86 1014.0
20210305073118 71 103 0.0 0.0 0.00 0.04 0.00 86 1014.2
20210305071634 72 101 0.0 0.0 0.00 0.04 0.00 85 1014.4
20210305070152 72 41 0.0 0.0 0.00 0.04 0.00 85 1014.6
20210305064557 72 80 0.0 0.0 0.00 0.04 0.00 84 1014.8
20210305063147 72 37 0.0 0.0 0.00 0.04 0.00 84 1015.0
20210305061636 72 44 0.0 0.0 0.00 0.04 0.00 85 1015.1
20210305060103 72 34 0.0 0.0 0.00 0.04 0.00 85 1015.2
20210305054553 72 26 0.0 0.0 0.00 0.04 0.04 85 1015.3
20210305053048 72 46 0.0 0.0 0.00 0.04 0.04 84 1015.5
20210305051526 73 54 0.0 0.0 0.00 0.04 0.04 84 1015.7
20210305050024 73 51 0.0 0.0 0.00 0.04 0.04 84 1015.8
20210305044524 73 30 0.0 0.0 0.00 0.04 0.04 84 1015.9
20210305043108 73 13 0.0 0.0 0.00 0.04 0.04 83 1016.0
20210305041619 73 10 0.0 0.0 0.00 0.04 0.04 83 1016.0
20210305040355 73 22 0.0 0.0 0.00 0.04 0.04 83 1016.0
20210305035105 74 51 0.0 0.0 0.00 0.04 0.04 82 1016.1
20210305033131 74 15 0.0 0.0 0.00 0.04 0.04 82 1016.1
20210305031559 74 15 0.0 0.0 0.00 0.04 0.04 82 1016.0
20210305030130 74 5 0.0 0.0 0.00 0.04 0.04 82 1016.0
20210305024552 74 32 0.0 0.0 0.00 0.04 0.04 81 1016.0
20210305023041 74 355 0.0 0.0 0.00 0.04 0.04 81 1016.0
20210305021651 75 5 0.0 0.0 0.00 0.04 0.04 81 1015.8
20210305020136 75 5 0.0 0.0 0.00 0.04 0.04 80 1015.8
20210305014548 75 11 0.0 0.0 0.00 0.04 0.04 80 1015.7